User: anonymous   Login
Location: Napa Junction
(38.1874°N, 122.2508°W)
Time: 11:18:14
(UTC+00:00)
Language:

COSMOS 2455 - Orbit

View from above orbital plane
View from above orbital plane
View from above satellite
View from above satellite

Ground track
Ground track

The orbit is defined by the following mean orbital elements,

1 36095U          26037.85031690 +.00000000 +00000-0 +32908-4 0 00002
2 36095  67.1459 209.8743 0007347 248.3590 111.6713 13.97036986    04
Epoch (UTC): 06 February 2026 20:24:27
Eccentricity: 0.0007347
inclination: 67.1459°
perigee height: 899 km
apogee height: 909 km
right ascension of ascending node: 209.8743°
argument of perigee: 248.3590°
revolutions per day: 13.97036986
mean anomaly at epoch: 111.6713°

The dashed part of the orbit path shows where the satellite is in the earth's shadow,  

DLR